weather station
Area: 11014 km2
The highest point: Tok (865 m.s.l.)
Total stations: 45
Stations online: 41
Stations offline: 4
Current weather
2°C

Meteorological map - weather stations in Středočeský

. The meteorological maps show weather information from WARIO weather stations

Weather stations Středočeský

 UpdatesNameStatusTemperatureHumidityWind speedWind direction
18.2.2020 21:26Bořanovice2.6 °C68.5 %2.2 m/s SW
18.2.2020 21:27Jílové u Prahy - Borek2.0 °C79.6 %1.0 m/s W
16.1.2020 12:54Brandýs nad Labem2.9 °C78.6 %0.6 m/s NW
18.2.2020 21:27Rakovník3.8 °C76.1 %0.0 m/s W
18.2.2020 21:27Králův Dvůr3.5 °C77.6 %3.2 m/s SW
18.2.2020 21:27Chotětov3.3 °C78.3 %3.9 m/s SW
18.2.2020 21:27Dolní Jirčany2.2 °C72.7 %3.6 m/s W
16.1.2020 17:06Holubice0.8 °C92.4 %0.0 m/s S
18.2.2020 21:27Hovorčovice2.8 °C72.4 %0.9 m/s SW
18.2.2020 21:27Sedlčany2.2 °C82.6 %0.0 m/s W
18.2.2020 21:27Kojetice3.5 °C76.9 %3.1 m/s W
18.2.2020 21:26Krásná Hora nad Vltavou1.9 °C80.4 %1.2 m/s SW
18.2.2020 21:27Květnice3.1 °C74.2 %2.9 m/s N
18.2.2020 21:27Libeř2.5 °C80.4 %0.9 m/s NW
18.2.2020 21:27Sazená-40.0 °C %4.8 m/s W
18.2.2020 21:27Mělník4.3 °C70.6 %2.6 m/s SW
18.2.2020 21:27Jince3.0 °C75.3 %2.7 m/s S
18.2.2020 21:27Cetyně1.6 °C70.8 %3.0 m/s SW
18.2.2020 21:27Olešná2.3 °C79.4 %2.7 m/s W
18.2.2020 21:26Srby2.2 °C84.7 %2.8 m/s SW
18.2.2020 21:27Kralupy nad Vltavou4.5 °C72.4 %0.0 m/s SW
18.2.2020 21:27Mrač3.2 °C75.8 %1.8 m/s W
18.2.2020 21:27Velvary3.3 °C73.0 %2.5 m/s S
18.2.2020 21:27Mladá Boleslav3.0 °C90.3 %0.0 m/s N
18.2.2020 21:27Mšecké Žehrovice1.6 °C86.2 %1.4 m/s S
18.2.2020 21:27Odolena voda3.6 °C76.4 %4.6 m/s W
18.2.2020 21:27Orlov1.2 °C82.7 %1.3 m/s E
18.2.2020 21:27Petrovice1.4 °C83.7 %1.1 m/s SW
18.2.2020 21:27Suchodol2.5 °C78.7 %3.4 m/s W
14.2.2020 03:59Husinec - Řež1.6 °C95.3 %0.0 m/s E
18.2.2020 21:27Semice4.2 °C81.1 %1.3 m/s SE
23.1.2020 15:15Slaný1.5 °C79.9 %1.3 m/s NE
18.2.2020 21:27Slaný2.5 °C84.4 %2.1 m/s S
18.2.2020 21:27Svojetice1.4 °C82.7 %4.4 m/s SW
18.2.2020 21:27Kosmonosy1.7 °C75.1 %1.5 m/s N
18.2.2020 21:24Roztoky2.4 °C78.8 %1.7 m/s NE
18.2.2020 21:27Toušice3.1 °C73.8 %0.0 m/s NE
18.2.2020 21:27Třebsko1.2 °C86.0 %2.1 m/s W
18.2.2020 21:27Srby2.3 °C87.3 %3.2 m/s W
18.2.2020 21:27Vestec2.7 °C86.0 %4.1 m/s NW
18.2.2020 21:27Vrbčany3.4 °C77.4 %1.3 m/s S
18.2.2020 21:27Všešímy1.7 °C70.6 %2.5 m/s W
18.2.2020 21:27Všetaty3.6 °C80.8 %2.3 m/s SW
18.2.2020 21:27Zibohlavy2.7 °C84.4 %2.0 m/s S
18.2.2020 21:27Divišov1.0 °C78.5 %1.5 m/s NE
Email notifications
Enter your email address to subscribe to notifications about news at warioweather.com. Your email address will not be used for any purpose other than sending these emails and will not be provided to any third party. The subscription can be ended at any time.
All data are only indicative. The portal administrator has no responsibility for potentially incorrect data and related consequences. Publishing or further sharing of content from www.warioweather.com is only allowed with written consent from WANET s.r.o.